Starlink 31280

operational
NORAD ID: 58843 Int'l Des: 2024-017 Owner: SPXS Country: US Constellation: starlink
LEOCIRCULAR

About Starlink 31280

Description loading...

Live Position

Loading 3D Globe...

Upcoming Passes

Altitude History

Altitude vs Time

uPlot chart will show altitude changes over time

Two-Line Element Set

1 58843U 24017T 25350.08508355 .00015077 00000-0 51998-3 0 9996
2 58843 53.1591 232.8189 0001339 81.4340 278.6813 15.30209721107253
Epoch: Dec 16, 2025 • Age: 20 hours

Current Status

Altitude 494.6 km
Velocity 7.62 km/s
Sub-Earth Point -53.31°S, 82.99°E
Launch Date Jan 24, 2024
Age 1.8 years
Type internet

Technical Details

Classification Payload
Mass 730.00 kg
Dry Mass 700.00 kg
Total Mass 730.00 kg
Length 0.30 m
Diameter 4.10 m
Span 29.00 m
Shape Box + pan
Manufacturer SPXS
Bus Type Starlink V2M
Phase Status In Orbit
Owner/State SPXS/US

Large Constellations

Loading constellations...